User: anonymous   Login
Location: Unspecified
(0.0000°N, 0.0000°E)
Time: 23:19:38
(UTC+00:00)
Language:

HORYU 2 - Orbit

View from above orbital plane
View from above orbital plane
View from above satellite
View from above satellite

Ground track
Ground track

The orbit data is extracted from the following two-line orbital elements,

1 38340U 12025D   17141.90804057 +.00000292 +00000-0 +51213-4 0  9994
2 38340 098.3763 144.9042 0012143 022.1977 337.9755 14.75323410259004
Epoch (UTC): 21 May 2017 21:47:34
Eccentricity: 0.0012143
inclination: 98.3763°
perigee height: 635 km
apogee height: 652 km
right ascension of ascending node: 144.9042°
argument of perigee: 22.1977°
revolutions per day: 14.75323410
mean anomaly at epoch: 337.9755°
orbit number at epoch: 25900

The dashed part of the orbit path shows where the satellite is in the earth's shadow,  

DLR